This demonstration page uses our WeatherBlox Daily Observations layout. Learn more.

Left ArrowRight Arrow

39.12711, -84.51439

Hourly Observations for June 21, 2021

Temp ( °F °C ) Dew Point ( °F °C ) Humidity (%) Winds ( mph kmh ) Pressure ( in mb ) Visibility ( mi km ) Precip ( " mm )
12:53 am 00:53 Clear 75 23.9 69 20.6 82 82 SSW 9 15 29.68 1005 10 16 N/A
1:53 am 01:53 Clear 75 23.9 69 20.6 82 82 S 9 15 29.67 1005 10 16 N/A
2:53 am 02:53 Mostly Cloudy 76 24.4 69 20.6 79 79 S 9 15 29.68 1005 10 16 N/A
3:53 am 03:53 Mostly Clear 76 24.4 69 20.6 79 79 SSW 13 20 29.66 1005 10 16 N/A
4:53 am 04:53 Partly Cloudy 77 25 69 20.6 77 77 SSW 10 17 29.65 1004 10 16 N/A
5:53 am 05:53 Clear 77 25 69 20.6 77 77 S 9 15 29.66 1004 10 16 N/A
6:53 am 06:53 Partly Cloudy 76 24.4 69 20.6 79 79 SSW 8 13 29.65 1004 10 16 N/A
7:53 am 07:53 Mostly Cloudy 78 25.6 70 21.1 76 76 SSW 10 17 29.66 1004 10 16 N/A
8:53 am 08:53 Mostly Cloudy 79 26.1 71 21.7 77 77 SSW 10 17 29.67 1005 10 16 N/A
9:53 am 09:53 Partly Cloudy 82 27.8 72 22.2 72 72 SW 12 19 29.68 1005 10 16 N/A
10:53 am 10:53 Partly Cloudy 83 28.3 71 21.7 67 67 SW 15 24 29.68 1005 10 16 N/A
11:53 am 11:53 Cloudy 83 28.3 72 22.2 70 70 SSW 12 19 29.70 1006 10 16 N/A
12:53 pm 12:53 Mostly Cloudy 83 28.3 69 20.6 63 63 WSW 16 26 29.67 1005 10 16 N/A
1:53 pm 13:53 Mostly Cloudy with Thunderstorms 82 27.8 67 19.4 60 60 W 15 24 29.65 1004 10 16 0.00 0.00
2:03 pm 14:03 Mostly Cloudy with Thunderstorms 78 25.6 69 20.6 74 74 VRB 7 11 29.66 1004 10 16 0.00 0.00
2:13 pm 14:13 Cloudy with Nearby Thunderstorms 77 25 70 21.1 79 79 W 10 17 29.67 1005 7 11 0.02 0.51
2:27 pm 14:27 Cloudy 79 26.1 70 21.1 74 74 W 9 15 29.66 1004 10 16 0.02 0.51
2:53 pm 14:53 Mostly Cloudy 79 26.1 69 20.6 72 72 W 16 26 29.66 1004 10 16 0.02 0.51
3:53 pm 15:53 Cloudy 79 26.1 68 20 69 69 WNW 8 13 29.69 1005 10 16 N/A
4:53 pm 16:53 Cloudy 77 25 67 19.4 71 71 W 8 13 29.70 1006 10 16 N/A
5:53 pm 17:53 Cloudy with Light Rain 74 23.3 66 18.9 76 76 W 12 19 29.74 1007 10 16 0.01 0.25
6:53 pm 18:53 Cloudy with Light Rain 73 22.8 64 17.8 74 74 NW 10 17 29.74 1007 10 16 0.00 0.00
7:53 pm 19:53 Mostly Cloudy 71 21.7 60 15.6 68 68 NNW 5 7 29.73 1007 10 16 0.00 0.00
8:53 pm 20:53 Cloudy 70 21.1 60 15.6 71 71 VRB 7 11 29.79 1009 10 16 0.00 0.00
9:53 pm 21:53 Cloudy with Light Rain 69 20.6 60 15.6 73 73 WNW 6 9 29.83 1010 10 16 0.00 0.00
10:53 pm 22:53 Mostly Cloudy with Light Rain 66 18.9 61 16.1 84 84 WNW 7 11 29.84 1011 10 16 0.02 0.51
11:53 pm 23:53 Mostly Cloudy 64 17.8 62 16.7 93 93 N N/A 29.86 1011 10 16 0.00 0.00

Powered by AerisWeather